Location: Catstown
(52.4386°N, 7.2633°W)
Time: 01:02:39
(UTC+00:00)

NOSS 2-2 (E) - Pass Details

Date: 18 September 2020
Orbit: 468 x 1739 km, 63.3° (Epoch: 26 October)

Event Time Altitude Azimuth Distance (km) Brightness Sun altitude
Rises 21:01:31 0° 241° (WSW) 2,512 7.0 -21.7°
Reaches altitude 10° 21:03:32 10° 246° (WSW) 1,675 6.2 -21.9°
Maximum altitude 21:07:05 52° 324° (NW) 674 4.0 -22.4°
Drops below altitude 10° 21:11:24 10° 42° (NE) 2,032 6.1 -22.9°
Sets 21:14:04 0° 48° (NE) 3,123 7.1 -23.2°
